Weather History for Millville, NJ

Change the Weather History Date:

Wednesday, December 19, 2012

  Actual Average Record
Temperature  
Mean Temperature 40 °F -  
Max Temperature 50 °F 43 °F 57 °F (1967)
Min Temperature 30 °F 23 °F 5 °F (1989)
Degree Days  
Heating Degree Days 25    
Moisture  
Dew Point 30 °F    
Average Humidity 67    
Maximum Humidity 85    
Minimum Humidity 50    
Precipitation  
Precipitation 0.00 in - - ()
Sea Level Pressure  
Sea Level Pressure 29.94 in    
Wind  
Wind Speed 8 mph (WNW)    
Max Wind Speed 18 mph    
Max Gust Speed 26 mph    
Visibility 10 miles    
Events      
Averages and records for this station are not official NWS values.
T = Trace of Precipitation, MM = Missing Value Source: NWS Daily Summary

Daily Weather History Graph

Daily Weather History Graph

Search for Another Location

Airport:

Trip Planner

Search our weather history database for the weather conditions in past years. The results will help you decide how hot, cold, wet, or windy it might be!

Date:

Astronomy

Dec. 19, 2012 Rise Set
Actual Time 7:15 AM EST 4:39 PM EST
Civil Twilight 6:45 AM EST 5:09 PM EST
Nautical Twilight 6:11 AM EST 5:43 PM EST
Astronomical Twilight 5:39 AM EST 6:16 PM EST
Moon 11:25 AM EST (12/19) No Moon Set
Length of Visible Light 10h 24m
Length of Day
9h 23m
Waxing Crescent, 45% of the Moon is Illuminated
Dec 19
Waxing Crescent
Dec 20
First Quarter
Dec 28
Full
Jan 4
Last Quarter
Jan 11
New

Hourly Weather History & Observations

Time (EST) Temp. Windchill Dew Point Humidity Pressure Visibility Wind Dir Wind Speed Gust Speed Precip Events Conditions
12:54 AM 37.9 °F 32.1 °F 30.0 °F 73% 29.77 in 10.0 mi West 8.1 mph - N/A   Clear
1:54 AM 37.9 °F 32.7 °F 30.9 °F 76% 29.78 in 10.0 mi West 6.9 mph - N/A   Clear
2:54 AM 37.0 °F 32.4 °F 30.0 °F 76% 29.79 in 10.0 mi West 5.8 mph - N/A   Clear
3:54 AM 37.9 °F 32.7 °F 30.9 °F 76% 29.79 in 10.0 mi West 6.9 mph - N/A   Partly Cloudy
4:54 AM 37.9 °F 34.4 °F 30.9 °F 76% 29.80 in 10.0 mi West 4.6 mph - N/A   Mostly Cloudy
5:54 AM 36.0 °F 30.3 °F 30.9 °F 82% 29.83 in 10.0 mi WSW 6.9 mph - N/A   Clear
6:54 AM 39.0 °F 33.4 °F 33.1 °F 79% 29.85 in 10.0 mi West 8.1 mph - N/A   Overcast
7:54 AM 42.1 °F 37.1 °F 32.0 °F 67% 29.86 in 10.0 mi West 8.1 mph - N/A   Overcast
8:54 AM 43.0 °F 37.7 °F 30.9 °F 62% 29.89 in 10.0 mi WNW 9.2 mph - N/A   Mostly Cloudy
9:54 AM 46.9 °F - 32.0 °F 56% 29.89 in 10.0 mi WNW 9.2 mph 20.7 mph N/A   Clear
10:54 AM 48.0 °F - 32.0 °F 54% 29.88 in 10.0 mi NW 18.4 mph 26.5 mph N/A   Scattered Clouds
11:54 AM 48.9 °F - 32.0 °F 52% 29.86 in 10.0 mi NW 15.0 mph 24.2 mph N/A   Clear
12:54 PM 50.0 °F - 32.0 °F 50% 29.88 in 10.0 mi NW 12.7 mph 20.7 mph N/A   Clear
1:54 PM 48.9 °F - 32.0 °F 52% 29.89 in 10.0 mi WNW 13.8 mph 23.0 mph N/A   Partly Cloudy
2:54 PM 48.9 °F - 32.0 °F 52% 29.94 in 10.0 mi NW 17.3 mph 25.3 mph N/A   Partly Cloudy
3:54 PM 48.0 °F - 30.9 °F 52% 29.97 in 10.0 mi WNW 12.7 mph - N/A   Partly Cloudy
4:54 PM 46.0 °F 40.2 °F 30.9 °F 56% 30.01 in 10.0 mi WNW 12.7 mph 19.6 mph N/A   Clear
5:54 PM 44.1 °F 40.1 °F 30.0 °F 58% 30.05 in 10.0 mi NW 6.9 mph - N/A   Clear
6:54 PM 44.1 °F 37.7 °F 28.0 °F 53% 30.07 in 10.0 mi NW 12.7 mph 19.6 mph N/A   Clear
7:54 PM 39.0 °F 36.8 °F 28.9 °F 67% 30.09 in 10.0 mi West 3.5 mph - N/A   Clear
8:54 PM 36.0 °F 33.3 °F 28.9 °F 76% 30.12 in 10.0 mi WNW 3.5 mph - N/A   Clear
9:54 PM 32.0 °F - 28.0 °F 85% 30.15 in 10.0 mi Calm Calm - N/A   Clear
10:54 PM 30.9 °F 26.2 °F 27.0 °F 85% 30.15 in 10.0 mi West 4.6 mph - N/A   Clear
11:54 PM 30.9 °F - 27.0 °F 85% 30.17 in 10.0 mi Calm Calm - N/A   Clear